#timestamp,LO_Frequency,Hit,StdDev 
1558270815.0,286046998.4,N
1558270815.9,286046998.4,N
1558270835.8,286047001.0,N
1558270855.6,286046998.4,N
1558270875.4,286046996.7,N
1558270895.3,286046999.1,N
1558270915.1,286046998.6,N
1558270935.9,286046999.6,N
1558270955.7,286046997.3,N
1558270975.5,286046997.5,N
1558270995.4,286046996.9,N
1558271015.2,286046997.8,N
1558271035.0,286046995.1,Y
1558271035.9,286046995.1,P
1558271055.8,286046998.2,N
1558271075.6,286046998.6,N
1558271095.5,286046998.6,N
1558271115.3,286046999.4,N
1558271135.1,286047011.9,Y
1558271155.9,286047000.2,P
1558271175.7,286046999.7,N
1558271195.6,286047002.7,N
1558271215.4,286047004.0,N
1558271235.2,286047002.1,N
1558271255.1,286047001.3,N
1558271256.0,286047001.3,N
1558271275.8,286047001.9,N
1558271295.6,286047002.4,N
1558271315.5,286046999.8,N
1558271335.3,286047000.5,N
1558271355.1,286047002.6,N
1558271375.9,286047001.6,N
1558271395.7,286047002.1,N
1558271415.6,286047004.2,N
1558271435.4,286047005.6,Y
1558271455.2,286047001.6,P
1558271475.1,286047002.1,P
1558271476.0,286047002.1,P
1558271495.8,286047002.6,Y
1558271515.7,286047001.1,P
1558271535.5,286047001.2,P
1558271555.3,286046999.2,N
1558271575.2,286046996.5,Y
1558271595.0,286046997.9,P
1558271595.9,286046997.9,N
1558271615.7,286046998.0,N
1558271635.6,286046996.6,N
1558271655.4,286046997.8,N
1558271675.3,286046997.8,N
1558271695.1,286046995.5,Y
1558271715.8,286046999.3,P
1558271735.7,286046998.4,N
1558271755.5,286046998.2,P
1558271775.3,286047000.5,N
1558271795.2,286047001.0,N
1558271815.0,286046998.5,N
1558271815.9,286046998.5,N
1558271835.8,286046999.4,N
1558271855.6,286046999.5,N
1558271875.4,286046996.6,Y
1558271895.3,286046996.4,P
1558271915.1,286046995.6,P
1558271935.9,286046994.2,P
1558271955.7,286046994.1,Y
1558271975.5,286046999.6,P
1558271995.4,286046999.3,N
1558272015.2,286046999.5,N
1558272035.0,286047001.2,N
1558272035.9,286047001.2,N
1558272055.8,286047001.1,N
1558272075.6,286047001.1,N
1558272095.5,286046999.8,N
1558272115.3,286047001.0,N
1558272135.1,286046998.6,N
1558272155.9,286047001.1,N
1558272175.7,286047000.8,N
1558272195.5,286046998.7,N
1558272215.4,286046998.3,N
1558272235.2,286046998.2,N
1558272255.1,286046998.5,N
1558272256.0,286046998.5,N
1558272275.8,286046998.4,N
1558272295.6,286046999.6,N
1558272315.5,286046999.3,N
1558272335.3,286046998.3,N
1558272355.2,286046998.8,N
1558272375.9,286046996.9,N
1558272395.7,286046999.6,N
1558272415.6,286046997.2,N
1558272435.4,286046999.0,N
1558272455.2,286047001.2,N
1558272475.1,286046999.0,N
1558272476.0,286046999.0,N
1558272495.8,286046998.5,N
1558272515.7,286046999.0,N
1558272535.5,286046998.1,N
1558272555.3,286047000.8,N
1558272575.2,286046998.2,N
1558272595.0,286046999.4,N
1558272595.9,286046999.4,N
1558272615.8,286046997.2,N
1558272635.6,286046995.6,Y
1558272655.4,286046999.2,P
1558272675.3,286046998.0,P
1558272695.1,286046997.7,P
1558272715.9,286046995.0,Y
1558272735.7,286047001.0,P
1558272755.5,286047000.5,N
1558272775.4,286046998.6,N
1558272795.2,286047001.1,N
1558272815.0,286047000.4,N
1558272815.9,286047000.4,N
1558272835.8,286047001.2,N
1558272855.6,286047000.1,N
1558272875.5,286047000.0,N
1558272895.3,286047000.3,N
1558272915.1,286047000.0,N
1558272935.9,286047001.0,N
1558272955.7,286047000.5,N
1558272975.5,286046998.8,N
1558272995.4,286047001.2,N
1558273015.2,286047000.7,N
1558273035.1,286046999.3,N
1558273036.0,286046999.3,N
1558273055.8,286046997.1,Y
1558273075.6,286046996.5,P
1558273095.5,286046996.6,N
1558273115.3,286046999.3,N
1558273135.2,286046996.9,N
1558273155.9,286046997.4,N
1558273175.7,286046996.6,N
1558273195.6,286046999.0,N
1558273215.4,286047000.0,N
1558273235.2,286047001.0,N
1558273255.1,286047000.9,N
1558273256.0,286047000.9,N
1558273275.8,286047000.8,N
1558273295.7,286047000.5,N
1558273315.5,286046998.4,N
1558273335.3,286046999.0,N
1558273355.2,286046998.9,N
1558273375.9,286046996.8,N
1558273395.7,286046997.0,N
1558273415.6,286046997.7,N
1558273435.4,286046997.1,N
1558273455.2,286046996.7,N
1558273475.1,286046997.7,N
1558273476.0,286046997.7,N
1558273495.8,286046997.4,N
1558273515.7,286046997.0,N
1558273535.5,286046996.7,N
1558273555.3,286046997.2,N
1558273575.2,286046996.6,N
1558273595.0,286046999.1,N
1558273595.9,286046999.1,N
1558273615.8,286047000.4,N
1558273635.6,286047000.9,N
1558273655.4,286047001.9,N
1558273675.3,286047002.5,N
1558273695.1,286046999.9,N
1558273715.8,286047000.4,N
1558273735.7,286047000.9,N
1558273755.5,286046999.6,N
1558273775.3,286046999.0,N
1558273795.2,286046999.2,N
1558273815.0,286046997.1,N
1558273815.9,286046997.1,N
1558273835.8,286046997.4,N
1558273855.6,286046995.5,N
1558273875.4,286046997.4,N
1558273895.3,286046993.7,Y
1558273915.1,286046995.6,P
1558273935.9,286046995.0,P
1558273955.7,286046995.4,P
1558273975.5,286046991.9,Y
1558273995.4,286046996.2,P
1558274015.2,286046994.6,P
1558274035.1,286046992.6,P
1558274036.0,286046992.6,Y
1558274055.8,286046995.2,P
1558274075.6,286046995.4,P
1558274095.5,286046997.5,P
1558274115.3,286046997.7,N
1558274135.1,286046997.5,N
1558274155.9,286046998.7,N
1558274175.7,286046999.1,N
1558274195.6,286046998.8,N
1558274215.4,286046999.5,N
1558274235.2,286046997.4,N
1558274255.1,286046995.8,N
1558274256.0,286046995.8,N
1558274275.8,286046996.5,N
1558274295.6,286046999.3,N
1558274315.5,286046996.6,N
1558274335.3,286046997.7,N
1558274355.2,286046999.6,N
1558274375.9,286046998.4,N
1558274395.7,286047000.0,N
